AirNav  
 
 779 users online  

7TX2 Falcon's Nest Heliport
Austin, Texas, USA

GOING TO AUSTIN?


FAA INFORMATION EFFECTIVE 09 NOVEMBER 2017

Location

FAA Identifier: 7TX2
Lat/Long: 30-25-09.0000N / 097-52-36.0000W
30-25.150000N / 097-52.600000W
30.4191667 / -97.8766667
(estimated)
Elevation: 900 ft. / 274 m (estimated)
From city: 20 miles NW of AUSTIN, TX
Time zone: UTC -6 (UTC -5 during Daylight Saving Time)
Zip code: 78732

Heliport Operations

Heliport use: Private use. Permission required prior to landing
Activation date: 06/2004
Control tower: no
ARTCC: HOUSTON CENTER
FSS: SAN ANGELO FLIGHT SERVICE STATION
Attendance: UNATNDD
Segmented circle: no

Heliport Communications

WX ASOS at RYW (7 nm NW): 119.375 (512-267-1365)
WX AWOS-3 at EDC (16 nm E): 118.825 (512-616-2967)
WX ASOS at AUS (17 nm SE): PHONE 512-369-7881
WX AWOS-3PT at GTU (19 nm NE): PHONE 512-869-3430

Nearby radio navigation aids

VOR radial/distance  VOR name  Freq  Var
CWKr272/18.1CENTEX VORTAC112.8006E
GRKr178/37.0GRAY VOR/DME111.8007E

Heliport Services

Runway Information

Helipad H1

Dimensions: 20 x 20 ft. / 6 x 6 m
Surface: concrete
Traffic pattern: leftleft

Heliport Ownership and Management from official FAA records

Ownership: Privately-owned
Owner: E. CRAIG NEMEC
6750 COMANCHE TRAIL
AUSTIN, TX 78732
Phone 214-616-4500
Manager: E. CRAIG NEMEC
6750 COMANCHE TRAIL
AUSTIN, TX 78732
Phone 214-616-4500

Heliport Operational Statistics

Aircraft based on the field: 1
Helicopters: 1
    

Instrument Procedures

There are no published instrument procedures at 7TX2.

Some nearby airports with instrument procedures:

KRYW - Lago Vista TX - Rusty Allen Airport (7 nm NW)
3R9 - Lakeway Airpark (7 nm SW)
KEDC - Austin Executive Airport (16 nm E)
KAUS - Austin-Bergstrom International Airport (17 nm SE)
KGTU - Georgetown Municipal Airport (19 nm NE)
 
Loc | Ops | Rwys | IFR | FBO | Links
Com | Nav | Svcs | Stats | Notes


 
Area around 7TX2 (Falcon's Nest Heliport)
 
Road maps at: MapQuest Bing Google
 
Aerial photo
No photo
 
Sectional chart

 
Airport distance calculator
Flying to Falcon's Nest Heliport? Find the distance to fly.

From to 7TX2

Sunrise and sunset
Times for 23-Nov-2017
 Local
(UTC-6)
 Zulu
(UTC)
Morning civil twilight06:3912:39
Sunrise07:0513:05
Sunset17:3123:31
Evening civil twilight17:5723:57

Current date and time
Zulu (UTC)  23-Nov-2017 14:38:13
Local (UTC-6)  23-Nov-2017 08:38:13
 
METAR
KRYW 
7nm NW 
231415Z AUTO 27005KT 10SM CLR 05/M03 A3022 RMK AO2 T00491029
KATT 
12nm SE 
231351Z AUTO 32004KT 10SM CLR 06/00 A3023 RMK AO2 SLP241 T00560000
KAUS 
12nm SE 
231353Z 00000KT 10SM FEW200 SCT300 03/01 A3022 RMK AO2 SLP240 T00280006 $
KEDC 
16nm E 
231415Z AUTO 33005KT 10SM CLR 07/M02 A3023 RMK AO2
KGTU 
18nm NE 
231356Z 00000KT 10SM CLR 04/M03 A3024 RMK AO2 SLP245 T00391028
TAF
KAUS 
12nm SE 
231143Z 2312/2418 02005KT P6SM FEW250 FM231800 VRB05KT P6SM FEW250 FM240500 00000KT P6SM SKC
NOTAMs
Click for the latest NOTAMs
NOTAMs are issued by the DoD/FAA and will open in a separate window not controlled by AirNav.

 

 
 

Would you like to see your business listed on this page?

 If your business provides an interesting product or service to pilots, flight crews, aircraft, or users of the Falcon's Nest Heliport, you should consider listing it here.  To start the listing process, click on the button below
 
Add a business
 

Other Pages about Falcon's Nest Heliport

Update a link
 
Copyright © AirNav, LLC. All rights reserved. Privacy Policy  Contact